Location: Unspecified
(48.7670°N, 0.0000°E)
Time: 09:23:45
(UTC+00:00)

Courier 1B - Pass Details

Date: 19 June 2019
Orbit: 962 x 1209 km, 28.3° (Epoch: 24 August)

Event Time Altitude Azimuth Distance (km) Brightness Sun altitude
Rises 23:55:38 0° 244° (WSW) 4,089 10.5 -17.8°
Enters shadow 23:58:00 - 233° (SW) 3,599 10.1 -17.8°
Reaches altitude 10° 00:01:39 10° 209° (SSW) 3,140 - -17.8°
Maximum altitude 00:03:08 11° 198° (SSW) 3,093 - -17.8°
Drops below altitude 10° 00:04:37 10° 187° (S) 3,138 - -17.8°
Sets 00:10:38 0° 152° (SSE) 4,077 - -17.8°
